Volver al catálogo

FALCON EYE 2

ActivoMilitarSSO
NORAD 47226·PAYLOAD·🇦🇪 UAE

Lanzado Dec 2, 2020 desde Guiana Space Centre

Loading…

Próximos Pases (próximas 24 horas)

TLE

ActualizadoSource: Space-Track

Época: Sep 14, 2026, 15:46 UTC

1 47226U 20090A   26257.65709785  .00000738  00000-0  92970-4 0  9990
2 47226  97.8515 331.1405 0001378  74.0609 286.0758 14.84914289313519

Sigue FALCON EYE 2 en tiempo real con AllMySat

Download on the App Store